Regional Weather Roundup
Issued by NWS Goodland, KS

Home | Current Version | Previous Version | Text Only | Print | Product List | Glossary Off
Versions: 1 2 3 4 5 6 7 8 9 10 11 12 13 14 15 16 17 18 19 20 21 22 23 24 25 26 27 28 29 30 31 32 33 34 35 36 37 38 39 40 41 42 43 44 45 46 47 48 49 50

000
ASUS43 KGLD 020508
RWRGLD

GOODLAND FORECAST AREA HOURLY WEATHER ROUNDUP
NATIONAL WEATHER SERVICE GOODLAND KS
1100 PM MDT WED OCT 01 2014

...OFFICIAL OBSERVATIONS...

CITY           SKY/WX    TMP DP  RH WIND       PRES   REMARKS
GOODLAND KS    LGT RAIN  50  47  89 N18G26    29.96R
HILL CITY KS   PTCLDY    62  51  67 NW23G32   29.82R
IMPERIAL NEB   LGT RAIN  50  45  83 N16G26    29.96R
MCCOOK NEB     MOCLDY    54  49  83 N24G32    29.87R
AKRON CO       CLOUDY    44  43  96 NW10      30.03R
BURLINGTON CO  LGT RAIN  48  45  89 N20G29    29.95F
LIMON CO       CLOUDY    44  42  93 N16       30.01F
$$

...UNOFFICIAL OBSERVATIONS...

CITY           SKY/WX    TMP DP  RH WIND       PRES   REMARKS
COLBY KS       LGT RAIN  52  52 100 NW14G20   29.90F
GOVE KS          N/A     57  32  39 MISG        N/A
NORTON KS      MOCLDY    59  46  63 W25G35    29.86R
SHARON SPRINGS   N/A     52  48  86 N17G30      N/A
TRENTON NEB      N/A     53  32  45 NW18        N/A
KIT CARSON CO    N/A     48  44  86 MISG        N/A
YUMA CO          N/A     47  44  90 CALM        N/A
$$


USA.gov is the U.S. government's official web portal to all federal, state and local government web resources and services.